Date,TemperatureHighF,TemperatureAvgF,TemperatureLowF,DewpointHighF,DewpointAvgF,DewpointLowF,HumidityHigh,HumidityAvg,HumidityLow,PressureMaxIn,PressureMinIn,WindSpeedMaxMPH,WindSpeedAvgMPH,GustSpeedMaxMPH,PrecipitationSumIn
2013-1-1,45.1,41.1,36.7,44.1,39.0,32.5,100,93,79,30.03,29.81,11,3,15,0.02
2013-1-2,44.4,37.3,27.9,33.6,29.7,23.9,90,75,52,30.10,30.00,9,3,13,0.00
2013-1-3,56.7,36.6,24.3,33.0,24.5,15.3,100,68,20,30.24,30.09,7,2,11,0.00
2013-1-4,55.8,41.2,28.9,37.1,24.5,11.6,94,58,19,30.31,30.15,5,1,8,0.00
2013-1-5,53.6,43.4,32.9,36.8,33.3,29.0,91,69,48,30.16,30.00,8,1,12,0.00
2013-1-6,63.7,41.1,27.3,35.0,21.1,2.8,100,59,10,30.15,30.06,11,2,15,0.00
2013-1-7,57.7,38.0,22.6,31.3,19.8,9.6,90,55,15,30.19,29.94,9,1,14,0.00
2013-1-8,50.0,43.0,36.5,46.7,32.8,24.5,94,68,54,29.95,29.81,7,2,11,0.06
2013-2-21,43.7,38.1,34.0,39.8,34.3,26.9,100,86,71,29.76,29.46,10,1,17,0.44
2013-2-22,55.9,42.3,33.3,40.0,24.5,9.6,99,57,16,29.91,29.70,8,2,12,0.00
2013-2-23,62.1,42.1,26.8,30.9,21.5,12.2,85,49,14,29.87,29.70,6,0,9,0.00
2013-2-24,66.6,48.4,29.7,32.8,25.9,16.0,88,50,15,29.81,29.55,12,1,15,0.00
2013-2-25,55.2,49.5,44.8,50.8,38.6,30.2,92,68,47,29.54,29.18,14,2,20,0.44
2013-2-26,56.5,44.1,36.5,37.1,28.1,13.3,84,57,18,29.68,29.25,17,8,23,0.04
2013-2-27,57.2,43.0,29.8,31.2,21.5,10.9,87,48,17,29.92,29.68,13,3,18,0.00
2013-2-28,58.6,45.2,32.0,25.6,17.3,1.9,69,38,10,30.00,29.88,14,2,21,0.00
2013-3-1,55.2,42.5,30.7,26.0,16.1,-1.5,76,41,10,30.04,29.91,14,1,21,0.00
2013-3-2,53.8,40.0,28.9,16.3,6.6,-7.9,57,29,10,30.16,30.01,12,1,20,0.00
2013-3-3,68.2,47.6,25.0,25.6,14.0,-1.2,76,35,10,30.03,29.62,11,1,15,0.00
2013-3-4,81.9,62.6,47.8,45.9,33.6,18.8,67,39,10,29.63,29.37,16,2,23,0.01
2013-3-5,59.0,50.5,37.0,43.8,15.8,-4.1,64,30,10,30.10,29.49,17,5,26,0.06
2013-3-6,67.6,47.9,32.4,22.9,9.8,-4.7,55,26,10,30.21,30.00,7,0,11,0.00
2013-3-7,68.5,52.3,37.6,25.7,17.0,5.3,59,29,10,30.11,29.93,9,0,16,0.00
2013-3-8,64.8,55.9,43.2,29.0,24.1,14.3,55,31,15,30.06,29.84,8,0,14,0.00
2013-3-9,68.4,62.6,55.6,55.7,45.2,26.7,80,54,28,29.84,29.51,13,3,23,0.04
2013-3-10,60.6,52.3,41.5,58.1,40.8,21.6,100,68,33,29.81,29.47,21,6,25,0.89
2013-3-11,57.9,43.5,32.5,23.5,16.4,-1.6,67,39,10,29.85,29.75,15,4,21,0.00
2013-3-12,73.9,50.7,29.1,33.4,19.1,4.6,84,41,10,30.08,29.84,6,0,8,0.00
2013-3-13,47.7,44.3,39.9,32.0,30.5,29.5,67,58,51,30.13,30.08,0,0,1,0.00
2013-3-14,78.1,55.9,33.6,37.3,23.8,11.5,78,39,10,30.17,29.94,11,2,14,0.00
2013-3-15,82.4,63.1,41.4,46.2,35.6,19.1,87,45,10,29.95,29.67,11,3,18,0.00
2013-3-16,83.7,67.6,46.6,48.7,41.5,33.5,80,43,17,29.68,29.50,9,2,17,0.00
2013-3-17,77.7,67.3,55.9,57.4,51.6,44.5,73,58,40,29.56,29.40,9,2,14,0.00
2013-3-18,72.0,55.2,46.0,52.3,34.8,26.3,88,48,20,29.81,29.44,8,0,14,0.05
2013-3-19,68.5,52.7,36.5,42.3,24.1,6.4,85,43,10,29.94,29.78,11,0,18,0.00
2013-3-20,70.2,55.3,36.0,28.7,15.4,2.4,59,25,10,30.10,29.85,10,0,17,0.00
2013-3-21,49.3,44.3,40.3,34.8,24.5,3.8,80,48,17,29.85,29.52,14,2,20,0.13
2013-3-22,47.7,44.1,40.3,45.6,41.4,34.6,95,90,80,29.65,29.50,10,0,17,0.04
2013-3-23,50.0,47.1,44.4,49.5,45.6,41.2,100,95,86,29.67,29.45,8,0,14,0.18
2013-3-24,50.4,44.0,36.7,49.6,26.7,13.3,100,54,23,29.92,29.49,20,8,33,0.50
2013-3-25,53.6,40.9,30.2,18.9,7.5,-7.9,57,30,10,30.17,29.92,17,4,24,0.05
2013-3-26,35.2,33.1,30.4,16.1,12.7,10.6,52,43,37,30.17,30.16,0,0,1,0.00
2013-3-27,69.6,61.2,27.9,24.0,10.0,1.0,74,15,10,30.16,29.92,11,2,16,0.00
2013-3-28,77.0,60.6,43.9,46.2,33.5,17.6,51,37,23,30.06,29.89,8,1,13,0.00
2013-3-29,74.1,65.7,60.3,59.2,51.4,45.4,91,61,41,29.97,29.83,8,1,14,0.02
2013-3-30,71.8,62.5,58.3,65.7,59.2,57.2,100,90,65,29.86,29.68,12,0,18,0.52
2013-3-31,83.1,64.3,52.9,65.4,53.2,33.2,100,74,20,29.75,29.62,16,0,23,1.09
2013-4-1,85.6,65.1,43.5,57.5,40.0,20.8,100,53,10,29.87,29.74,6,0,11,0.00
2013-4-2,60.6,54.8,43.0,49.4,41.0,30.6,92,61,35,29.91,29.79,14,2,24,0.46
2013-4-3,53.8,47.3,43.2,41.9,30.6,19.8,92,55,29,29.94,29.83,13,2,22,0.01
2013-4-4,55.2,45.1,40.3,42.0,38.5,28.1,93,78,49,29.94,29.85,6,0,9,0.50
2013-4-5,78.1,56.8,36.0,49.5,31.3,11.9,100,52,10,29.99,29.82,6,0,9,0.01
2013-4-6,81.1,64.9,46.6,48.5,37.9,22.9,81,43,12,29.83,29.61,11,2,19,0.00
2013-4-7,76.3,65.8,57.4,55.7,52.5,46.3,76,63,44,29.74,29.57,10,1,17,0.00
2013-4-8,80.4,71.4,62.2,60.6,55.0,52.2,86,58,38,29.61,29.49,11,2,15,0.00
2013-4-9,88.7,76.6,68.2,63.3,56.4,46.1,75,52,24,29.57,29.46,14,5,22,0.01
2013-4-10,76.8,75.4,74.3,64.0,63.0,61.5,67,65,63,29.55,29.49,11,6,18,0.00
2013-4-11,64.9,49.3,36.9,35.9,26.3,10.6,78,48,12,29.70,29.53,11,4,15,0.01
2013-4-12,80.4,56.9,36.3,42.3,30.3,15.2,87,47,10,29.76,29.62,7,1,10,0.00
2013-4-13,81.9,64.7,47.1,43.0,31.6,18.1,72,37,10,29.83,29.58,6,1,9,0.00
2013-4-14,84.2,69.7,51.6,51.9,48.1,37.6,81,48,20,29.59,29.34,8,1,14,0.00
2013-4-15,91.2,75.6,62.8,62.8,57.7,51.0,85,57,26,29.57,29.44,9,1,14,0.00
2013-4-16,92.7,78.6,66.4,67.0,61.4,54.1,83,59,28,29.72,29.55,10,1,16,0.00
2013-4-17,89.8,80.2,74.1,70.6,63.6,54.9,88,60,32,29.71,29.46,13,4,22,0.02
2013-4-18,78.3,59.7,45.3,65.1,46.8,23.6,92,64,36,29.85,29.34,17,6,25,1.00
2013-4-19,66.0,49.2,37.6,31.6,17.9,-0.6,69,36,10,29.98,29.85,14,4,20,0.00
2013-4-20,76.8,56.5,34.3,39.0,25.1,9.9,86,42,10,30.01,29.84,10,1,16,0.00
2013-4-21,77.5,59.8,42.4,46.7,30.7,13.2,81,42,10,30.03,29.87,12,1,21,0.00
2013-4-22,82.4,64.1,43.7,47.2,34.6,18.4,82,42,10,29.95,29.67,10,1,19,0.00
2013-4-23,79.7,61.9,46.2,56.4,46.8,34.5,73,59,41,29.85,29.65,17,3,21,0.00
2013-4-24,46.2,43.6,41.2,36.2,34.4,33.0,81,70,62,29.91,29.85,9,3,16,0.11
2013-4-25,77.4,57.4,35.6,40.8,26.0,12.4,84,41,10,30.14,29.98,5,1,8,0.00
2013-4-26,72.7,59.7,54.5,53.6,44.9,34.1,79,59,39,30.01,29.83,9,1,16,0.06
2013-4-27,79.7,64.6,54.9,66.7,55.4,48.1,100,73,54,29.84,29.75,17,2,22,0.01
2013-4-28,90.9,68.3,48.7,53.3,46.4,24.1,95,55,10,29.81,29.64,6,0,10,0.00
2013-4-29,92.7,72.8,53.2,60.3,49.6,32.0,97,53,12,29.71,29.57,8,1,14,0.00
2013-4-30,90.0,73.1,52.9,61.6,51.2,39.5,94,53,18,29.64,29.54,8,1,14,0.00
2013-5-1,82.8,70.9,62.8,64.9,57.8,17.7,93,65,37,29.79,29.61,101,2,105,0.00
2013-5-2,72.0,60.1,43.3,60.0,49.1,32.1,88,68,35,29.97,29.76,14,2,20,0.05
2013-5-3,66.9,50.9,39.0,35.2,22.0,3.1,79,43,10,29.97,29.75,20,4,33,0.34
2013-5-4,60.8,48.6,35.4,35.9,26.4,1.2,80,48,10,29.77,29.66,16,2,25,0.04
2013-5-5,70.2,55.2,40.8,40.7,33.2,13.8,84,50,13,29.88,29.76,14,1,18,0.00
2013-5-6,85.1,64.6,46.6,47.5,38.3,20.6,86,48,10,29.84,29.70,9,1,14,0.00
2013-5-7,90.9,68.5,49.3,57.9,40.7,19.9,88,49,10,29.86,29.72,7,0,9,0.00
2013-5-8,90.3,71.8,51.4,55.2,48.4,33.7,90,50,15,29.80,29.67,8,0,14,0.00
2013-5-9,72.7,67.6,62.2,66.4,60.5,53.3,100,79,54,29.80,29.67,4,0,8,0.19
2013-5-10,85.1,70.8,61.3,70.9,61.2,52.3,100,76,35,29.79,29.65,12,0,16,0.02
2013-5-11,86.7,71.8,57.6,56.5,43.7,21.4,89,47,10,29.91,29.77,6,0,10,0.00
2013-5-12,85.3,66.8,44.6,47.4,30.6,13.2,80,34,10,30.03,29.90,3,0,7,0.00
2013-5-13,90.0,68.8,47.8,54.4,36.0,18.2,90,43,10,30.01,29.86,7,0,16,0.00
2013-5-14,93.6,73.0,50.0,56.0,43.7,25.6,91,44,10,29.92,29.77,6,0,12,0.00
2013-5-15,82.2,68.8,59.4,66.4,56.2,45.5,100,66,44,29.83,29.62,9,0,15,0.83
2013-5-16,64.2,63.8,63.5,64.0,63.5,63.2,99,99,99,29.71,29.56,9,1,12,0.35
2013-5-20,90.9,79.9,68.9,66.8,64.3,57.9,75,60,43,29.63,29.48,8,0,16,0.00
2013-5-21,75.6,67.0,60.6,67.1,62.4,58.0,99,86,68,29.65,29.46,9,1,15,1.69
2013-5-22,93.4,72.4,60.6,64.0,57.5,42.0,99,68,17,29.71,29.59,5,0,8,0.02
2013-5-23,91.0,72.7,59.2,71.4,63.5,57.9,99,76,34,29.86,29.69,1,0,4,0.01
2013-5-24,83.7,75.0,69.1,68.8,60.5,55.4,95,63,42,29.98,29.82,6,1,13,0.00
2013-5-25,84.9,74.0,64.8,69.1,58.1,50.7,78,59,40,29.98,29.83,4,0,7,0.01
2013-5-26,88.0,78.8,68.2,68.8,60.5,51.1,89,56,31,29.89,29.77,6,0,14,0.00
2013-5-27,89.4,78.8,70.5,72.4,65.2,58.3,100,67,37,29.79,29.60,8,0,19,0.00
2013-5-28,91.0,80.1,70.3,67.3,62.3,55.0,85,57,31,29.70,29.59,8,1,17,0.00
2013-5-29,88.7,78.7,69.3,68.0,63.7,60.0,89,61,40,29.69,29.53,8,1,15,0.00
2013-5-30,88.3,78.4,73.9,75.0,69.0,63.4,86,73,55,29.63,29.47,8,1,15,0.21
2013-5-31,96.6,84.7,77.5,71.8,68.6,63.6,78,61,35,29.64,29.44,7,1,14,0.01
2013-6-1,81.0,75.4,68.9,72.8,69.5,62.3,100,82,67,29.71,29.52,9,0,14,0.39
2013-6-2,89.1,73.7,61.2,70.4,56.1,43.4,100,61,21,29.80,29.69,9,0,14,0.01
2013-6-3,91.6,74.1,57.7,65.1,55.9,48.4,100,59,24,29.78,29.63,4,0,6,0.00
2013-6-4,89.4,74.6,63.0,64.6,61.1,58.2,90,65,36,29.83,29.62,4,0,10,0.00
2013-6-5,97.0,79.5,66.7,69.9,64.6,59.1,89,64,30,29.77,29.56,7,0,11,0.00
2013-6-6,74.1,71.3,69.4,72.0,68.7,64.4,100,91,77,29.67,29.57,17,1,23,0.05
2013-6-7,90.5,73.0,60.1,63.8,53.7,34.5,92,57,14,29.73,29.64,0,0,3,0.00
2013-6-8,91.4,75.1,57.6,69.5,54.2,41.2,100,56,18,29.73,29.60,6,0,9,0.00
2013-6-9,96.6,77.6,64.6,69.2,63.5,57.3,97,67,28,29.69,29.61,8,0,12,0.06
2013-6-10,101.1,82.6,65.3,76.5,65.2,49.7,100,63,19,29.74,29.66,11,1,16,0.00
2013-6-11,99.3,84.0,66.9,77.1,67.7,60.9,100,64,29,29.81,29.70,7,1,12,0.00
2013-6-12,97.7,84.8,70.5,74.1,67.8,61.1,95,61,31,29.83,29.70,8,1,14,0.00
2013-6-13,102.9,88.7,70.7,82.1,68.6,60.2,100,58,27,29.80,29.65,9,1,13,0.00
2013-6-14,99.7,85.4,75.0,76.5,70.6,62.6,100,65,31,29.77,29.66,6,0,10,0.00
2013-6-15,94.6,79.9,72.3,73.9,67.2,54.3,92,69,27,29.81,29.68,3,0,8,0.13
2013-6-16,98.8,83.2,73.4,75.2,70.9,64.5,97,70,37,29.79,29.63,8,0,14,0.11
2013-6-17,91.0,76.0,68.2,74.5,68.3,64.5,99,81,42,29.75,29.64,12,1,17,0.72
2013-6-18,89.8,82.2,68.2,73.2,63.4,59.9,97,55,38,29.75,29.66,3,0,7,0.00
2013-6-19,93.9,78.6,64.0,71.3,65.1,59.1,100,67,33,29.81,29.69,4,0,8,0.00
2013-6-20,97.5,83.2,70.7,73.6,69.1,63.4,100,67,35,29.84,29.74,4,0,8,0.00
2013-6-21,78.3,76.2,74.7,72.3,71.7,70.7,92,86,78,29.81,29.80,0,0,0,0.00
2013-7-11,106.7,84.2,72.7,76.6,68.9,58.6,100,66,24,29.78,29.65,9,0,15,0.09
2013-7-12,100.6,84.2,71.2,72.3,66.3,57.2,100,61,24,29.79,29.67,0,0,2,0.00
2013-7-13,96.3,81.3,64.6,67.2,55.6,44.1,81,47,18,29.80,29.68,1,0,4,0.00
2013-7-14,89.1,76.6,70.3,63.9,60.2,51.7,72,58,28,29.77,29.69,0,0,1,0.00
2013-7-15,89.2,76.8,71.8,71.4,64.9,61.7,100,69,41,29.91,29.73,9,0,13,0.12
2013-7-16,95.5,80.8,69.1,74.5,67.1,59.9,100,69,31,29.98,29.87,5,0,8,0.01
2013-7-17,97.7,89.7,73.8,70.9,63.1,55.1,87,44,25,30.02,29.90,8,0,12,0.00
2013-7-18,105.8,86.9,70.9,78.0,62.9,41.2,100,54,12,29.95,29.75,8,0,14,0.00
2013-7-19,95.4,79.5,71.8,71.3,67.3,62.1,89,69,34,29.83,29.71,12,1,20,0.00
2013-7-20,99.5,80.0,70.5,76.4,69.0,56.1,100,75,24,29.76,29.61,6,0,14,0.53
2013-7-21,98.1,83.2,71.6,79.0,69.5,59.9,100,69,30,29.72,29.61,11,0,15,0.01
2013-7-22,101.7,86.3,74.5,76.2,69.4,61.5,95,61,28,29.73,29.62,6,1,11,0.00
2013-7-23,102.2,84.0,72.9,75.4,69.8,61.8,96,65,32,29.73,29.58,19,1,26,1.81
2013-7-24,94.1,78.1,70.0,74.0,67.9,58.6,100,76,32,29.78,29.61,9,0,12,0.85
2013-7-25,98.2,81.6,68.5,80.0,68.3,58.1,100,69,28,29.84,29.73,2,0,4,0.00
2013-7-26,76.3,73.6,68.7,76.0,71.4,66.6,100,93,83,29.84,29.63,7,0,10,3.45
2013-7-27,97.0,80.6,70.0,78.2,64.7,50.0,99,66,22,29.77,29.67,3,0,7,0.00
2013-7-28,94.6,80.7,67.6,75.0,65.7,55.9,100,66,28,29.78,29.70,7,0,10,0.00
2013-7-29,95.0,82.0,72.7,72.3,69.1,64.1,88,68,37,29.81,29.71,5,0,12,0.00
2013-7-30,97.3,84.8,76.3,74.8,69.6,63.6,86,63,36,29.84,29.73,4,0,8,0.00
2013-7-31,101.5,85.7,75.2,79.2,70.5,60.9,100,66,28,29.83,29.68,8,0,11,0.00
2013-8-1,98.6,86.1,76.8,81.3,72.1,61.9,100,69,31,29.79,29.69,7,0,11,0.00
2013-8-2,102.7,86.8,74.3,76.1,71.6,62.9,97,66,29,29.74,29.63,4,0,8,0.00
2013-8-3,98.2,86.6,74.7,77.1,70.5,63.2,97,63,34,29.81,29.68,4,0,8,0.00
2013-8-4,100.0,83.7,76.5,80.5,73.9,65.1,100,77,33,29.86,29.77,2,0,4,0.00
2013-8-5,108.0,92.3,76.3,79.0,66.2,46.3,100,50,14,29.76,29.60,8,0,11,0.00
2013-8-6,104.9,88.2,73.0,78.3,68.3,53.2,100,60,19,29.68,29.55,4,0,8,0.00
2013-8-7,101.3,87.4,72.7,76.2,68.4,58.9,100,58,27,29.68,29.55,7,0,10,0.00
2013-8-8,100.2,87.4,74.8,75.0,69.1,62.5,94,59,30,29.67,29.54,7,0,11,0.00
2013-8-9,100.9,85.9,74.7,72.3,64.9,47.8,76,53,18,29.73,29.63,5,0,8,0.00
2013-8-10,104.9,88.2,74.1,77.4,67.5,53.5,97,56,19,29.80,29.69,4,0,7,0.00
2013-8-11,101.3,83.8,74.1,75.4,69.8,60.3,100,66,27,29.84,29.73,8,0,13,0.32
2013-8-12,103.6,82.9,73.2,78.4,70.5,57.1,100,73,24,29.82,29.67,12,0,16,1.23
2013-8-13,96.8,80.1,72.1,75.3,69.5,60.3,100,74,31,29.81,29.68,5,0,8,0.01
2013-8-14,89.2,77.9,68.0,73.6,65.0,54.5,97,68,33,29.83,29.72,8,0,16,0.00
2013-8-15,91.6,77.8,60.6,62.2,54.7,42.8,92,51,21,29.87,29.74,3,0,8,0.00
2013-8-16,84.6,71.3,62.6,60.2,55.9,49.4,84,61,30,29.86,29.77,4,0,8,0.00
2013-8-17,92.5,75.0,59.0,64.9,54.7,41.0,93,57,17,29.86,29.75,8,0,11,0.00
2013-8-18,95.0,77.8,62.6,72.2,59.0,44.1,100,60,19,29.88,29.77,5,0,11,0.00
2013-8-19,96.6,79.5,65.3,68.0,57.9,29.2,97,57,10,29.88,29.73,2,0,5,0.00
2013-8-20,97.2,80.3,64.8,71.4,58.7,35.2,97,57,12,29.85,29.73,5,0,9,0.00
2013-8-21,100.0,82.1,66.9,71.7,60.3,32.7,97,57,10,29.88,29.75,2,0,7,0.00
2013-8-22,104.2,86.2,70.3,69.0,62.2,46.7,88,51,16,29.86,29.70,4,0,6,0.00
2013-8-23,103.3,84.9,71.1,74.8,64.8,49.2,94,56,18,29.82,29.69,4,0,7,0.00
2013-8-24,99.5,85.4,72.7,72.2,63.8,51.8,89,54,21,29.87,29.76,7,0,11,0.00
2013-8-25,96.8,84.6,73.2,73.6,63.6,51.3,88,54,22,29.95,29.84,8,0,13,0.00
2013-8-26,95.5,81.0,71.1,71.3,64.6,51.3,91,62,24,29.97,29.88,8,0,13,0.00
2013-8-27,102.0,88.6,68.0,70.1,61.7,46.6,91,46,16,29.55,29.38,4,0,8,0.00
2013-8-28,106.5,86.6,72.5,74.8,61.4,35.6,89,54,10,29.48,29.35,7,0,9,0.00
2013-8-29,107.2,87.2,70.3,71.6,60.3,36.4,89,51,10,29.47,29.32,4,0,7,0.00
2013-8-30,107.8,86.9,69.8,74.1,60.3,36.6,97,52,10,29.42,29.24,4,0,7,0.00
2013-8-31,106.2,85.5,71.1,72.0,64.0,38.1,91,56,10,29.32,29.18,3,0,7,0.00
2013-9-1,108.7,86.8,71.2,75.0,63.6,38.9,97,55,10,29.28,29.13,6,0,13,0.00
2013-9-2,102.4,83.8,72.0,79.3,68.5,54.1,100,66,22,29.36,29.22,16,1,27,1.00
2013-9-3,105.1,85.1,72.5,76.7,64.6,35.7,100,60,10,29.38,29.26,4,0,7,0.00
2013-9-4,100.0,83.6,70.7,64.6,54.3,32.6,70,43,10,29.49,29.36,6,0,10,0.00
2013-9-5,104.0,81.6,65.3,60.2,51.1,32.6,75,42,10,29.53,29.40,4,0,8,0.00
2013-9-6,107.8,82.0,65.1,64.0,53.8,33.8,81,47,10,29.50,29.34,2,0,5,0.00
2013-9-7,106.5,84.3,66.9,67.2,56.6,36.0,81,49,10,29.44,29.29,5,0,8,0.00
2013-9-8,105.6,84.6,67.6,72.6,58.0,34.5,97,53,10,29.39,29.25,6,0,10,0.00
2013-9-9,101.7,83.2,67.3,73.7,57.4,32.6,100,53,10,29.41,29.30,8,0,13,0.00
2013-9-10,100.8,81.0,65.1,69.5,59.4,40.0,92,57,13,29.51,29.36,5,0,8,0.00
2013-9-11,92.5,74.5,69.4,72.0,67.5,63.1,94,80,39,29.51,29.45,3,0,4,0.00
2013-9-12,102.9,85.1,69.4,73.2,61.3,38.3,97,52,11,29.84,29.69,2,0,4,0.00
2013-9-13,96.3,80.3,69.8,71.7,62.7,52.9,95,60,24,29.76,29.64,6,0,9,0.00
2013-9-14,91.0,77.1,65.7,52.3,41.9,25.8,56,33,10,29.82,29.69,8,1,11,0.00
2013-9-15,99.3,77.5,59.7,62.5,47.2,31.8,71,40,11,29.84,29.74,4,0,4,0.00
2013-9-16,101.8,81.4,64.8,67.7,51.9,34.5,87,46,11,29.88,29.75,0,0,2,0.00
2013-9-17,99.3,85.2,69.4,64.2,58.4,44.3,64,43,16,29.88,29.73,4,0,7,0.00
2013-9-18,96.1,78.4,72.7,70.4,64.2,57.2,83,64,29,29.80,29.67,0,0,4,0.01
2013-9-19,101.1,82.7,70.0,71.3,62.7,44.7,88,57,15,29.79,29.62,8,0,16,0.07
2013-9-20,76.5,72.9,70.0,76.0,71.1,66.9,100,94,79,29.72,29.58,2,0,6,1.55
2013-9-21,92.1,72.9,57.0,67.3,45.4,23.4,94,50,10,29.73,29.61,7,0,11,0.01
2013-9-22,87.8,66.9,51.3,62.0,45.9,23.2,100,59,10,29.73,29.58,6,0,9,0.00
2013-9-23,86.9,69.3,52.7,61.0,47.4,32.2,100,55,15,29.67,29.54,8,0,14,0.00
2013-9-24,95.9,74.9,58.8,61.2,44.5,16.9,93,47,10,29.66,29.55,11,1,16,0.00
2013-9-25,100.2,73.1,56.5,58.9,48.4,27.7,86,52,10,29.66,29.52,9,1,12,0.00
2013-9-26,95.7,74.1,59.4,67.5,52.9,29.0,100,59,10,29.71,29.59,5,0,9,0.00
2013-9-27,94.1,76.8,60.6,62.3,55.1,37.1,93,54,14,29.77,29.65,8,0,12,0.00
2013-9-28,89.4,74.3,69.8,72.0,64.5,58.4,100,73,40,29.78,29.67,11,0,17,1.12
2013-9-29,91.2,76.2,66.9,73.1,64.8,49.5,99,74,25,29.77,29.63,6,0,8,0.05
2013-9-30,90.3,75.4,64.9,75.3,64.7,52.4,100,75,28,29.67,29.58,4,0,7,0.01
2013-10-1,90.0,76.2,70.3,76.6,69.9,63.0,100,83,42,29.75,29.62,4,0,8,0.00
2013-10-2,90.9,77.9,71.6,74.4,67.4,57.7,100,74,33,29.79,29.67,5,0,8,0.00
2013-10-3,94.5,78.1,70.0,75.8,67.5,59.1,100,73,31,29.74,29.61,6,0,11,0.02
2013-10-4,92.5,79.2,70.2,74.9,65.2,52.7,100,68,28,29.71,29.62,8,0,17,0.00
2013-10-5,89.4,74.8,53.2,76.0,67.2,48.0,100,79,43,29.83,29.66,11,2,17,0.22
2013-10-6,75.9,60.9,48.6,50.0,39.5,18.5,96,57,12,29.83,29.73,13,2,18,0.01
2013-10-7,88.2,64.1,47.5,49.0,36.7,17.0,92,51,10,29.90,29.80,6,0,9,0.00
2013-10-8,80.6,61.7,46.4,56.6,41.7,22.4,96,58,12,29.92,29.79,6,0,8,0.00
2013-10-9,85.3,63.1,45.9,58.3,45.3,29.8,100,62,14,29.89,29.77,3,0,6,0.00
2013-10-10,84.6,66.0,48.9,58.1,49.3,38.4,97,62,20,29.88,29.70,6,0,10,0.00
2013-10-11,63.1,61.8,59.9,55.1,54.2,53.3,83,76,71,29.71,29.69,0,0,1,0.00
2013-10-12,84.4,73.0,67.5,71.0,67.1,62.4,100,83,58,29.85,29.67,4,0,9,0.01
2013-10-13,79.9,69.2,67.1,70.2,64.0,57.7,99,85,47,30.00,29.85,7,0,13,0.01
2013-10-14,68.7,66.5,62.8,68.1,59.5,48.5,100,79,57,29.95,29.74,0,0,2,0.17
2013-10-15,78.1,69.3,62.4,75.3,68.6,62.2,100,98,77,29.77,29.66,7,0,13,1.05
2013-10-16,62.4,57.6,54.9,62.2,57.1,54.4,100,98,91,29.84,29.73,4,0,7,0.25
2013-10-17,77.0,59.5,47.3,56.4,44.9,24.4,100,68,16,29.87,29.74,7,1,11,0.01
2013-10-18,78.1,58.2,45.1,58.0,48.6,35.9,100,75,22,29.82,29.69,4,0,8,0.01
2013-10-19,74.1,56.7,43.2,57.4,31.6,7.7,89,49,10,29.93,29.75,12,1,17,0.00
2013-10-20,74.5,54.0,36.1,44.6,33.6,12.1,92,58,10,29.87,29.68,5,0,12,0.00
2013-10-21,72.9,57.5,46.8,56.5,49.1,42.0,95,76,37,29.84,29.72,2,0,6,0.14
2013-10-22,75.2,58.2,41.5,56.2,41.3,14.0,100,65,10,29.92,29.74,10,1,14,0.01
2013-10-23,83.3,60.0,43.5,55.4,38.8,16.2,97,59,10,29.93,29.80,2,0,5,0.00
2013-10-24,84.6,61.5,45.7,58.7,39.5,18.7,97,55,10,30.09,29.80,7,0,11,0.00
2013-10-25,65.3,52.4,44.2,38.8,26.1,6.7,71,41,10,30.27,30.06,9,0,15,0.00
2013-10-26,55.8,48.4,41.7,55.5,43.3,35.2,100,83,59,30.06,29.84,0,0,2,3.24
2013-10-27,77.2,61.6,54.9,63.9,54.3,46.7,100,80,36,29.88,29.76,9,1,13,0.01
2013-10-28,78.3,64.2,53.4,62.7,55.7,49.4,100,77,37,29.92,29.80,3,0,7,0.00
2013-10-29,81.5,70.6,64.0,65.6,61.8,58.1,94,75,45,29.90,29.78,8,0,14,0.00
2013-10-30,73.9,68.3,64.4,70.0,62.5,51.5,100,82,47,29.82,29.61,8,1,17,0.21
2013-10-31,81.0,67.1,49.6,73.3,51.4,16.0,100,70,10,29.62,29.39,19,3,25,0.26
2013-11-1,84.4,60.7,42.3,52.9,36.9,16.0,94,54,10,29.78,29.59,5,0,8,0.00
2013-11-2,70.5,55.2,40.3,42.7,27.9,7.0,81,45,10,30.00,29.78,11,1,17,0.00
2013-11-3,69.8,51.3,33.6,42.1,31.4,12.8,90,54,11,30.04,29.82,9,1,17,0.00
2013-11-4,56.7,54.3,51.3,56.1,48.2,38.6,100,80,59,29.93,29.82,0,0,2,0.21
2013-11-5,67.6,62.2,56.1,66.3,60.9,55.9,100,96,74,29.91,29.73,7,0,11,1.35
2013-11-6,68.7,67.7,66.4,68.5,67.5,66.1,99,99,99,29.74,29.71,4,1,8,0.35
2013-11-7,68.2,48.8,33.8,45.7,32.8,15.4,93,63,13,30.25,30.11,5,1,8,0.00
2013-11-8,72.5,60.1,39.4,49.5,28.3,9.4,97,36,10,30.14,29.91,8,1,11,0.00
2013-11-9,59.2,54.8,51.4,49.2,46.9,40.9,83,75,62,30.03,29.91,4,0,8,0.01
2013-11-10,76.5,60.5,49.3,54.3,43.7,23.5,91,62,14,30.12,30.02,4,0,8,0.00
2013-11-11,78.6,58.0,42.4,56.7,42.5,27.9,97,65,16,30.07,29.93,6,0,8,0.00
2013-11-12,62.4,50.4,30.0,53.1,24.3,-3.6,90,44,10,30.44,30.02,8,0,15,0.00
2013-11-13,30.9,28.3,26.4,19.6,18.0,16.7,69,65,58,30.47,30.44,0,0,1,0.00
2013-11-14,58.3,42.3,24.3,28.2,15.2,-0.1,79,43,10,30.18,29.85,7,1,12,0.01
2013-11-15,56.7,52.2,44.6,56.4,50.2,27.9,100,93,46,29.85,29.67,0,0,2,0.27
2013-11-16,74.3,64.8,56.7,68.3,61.0,56.0,100,88,60,29.69,29.48,9,1,15,0.00
2013-11-17,87.1,74.6,57.7,67.2,48.9,13.9,79,48,10,29.78,29.44,17,4,21,0.00
2013-11-18,77.7,60.7,43.9,34.6,17.8,2.3,57,24,10,29.99,29.77,2,0,4,0.00
2013-11-19,65.5,54.2,48.4,34.6,17.9,0.9,58,28,10,30.02,29.85,12,1,20,0.00
2013-11-20,49.5,48.2,45.7,26.3,23.6,22.8,46,38,35,29.88,29.85,0,0,1,0.00
2013-11-27,53.6,37.1,25.2,16.1,3.0,-12.4,66,29,10,30.20,30.08,6,1,9,0.00
2013-11-28,57.0,35.8,21.6,22.7,11.1,-4.0,75,45,10,30.26,30.15,2,0,5,0.00
2013-11-29,62.4,40.0,22.6,31.1,15.6,0.4,83,47,10,30.33,30.15,4,0,7,0.00
2013-11-30,69.4,49.6,28.9,40.1,28.9,17.3,80,50,19,30.17,29.92,10,1,14,0.00
2013-12-1,66.4,57.6,50.5,49.9,45.1,40.5,80,64,46,29.96,29.64,2,0,4,0.00
2013-12-2,69.4,54.7,43.7,58.4,47.4,40.1,95,78,39,29.63,29.45,3,0,6,0.00
2013-12-3,63.9,55.1,41.0,60.5,52.0,38.6,100,90,62,29.46,29.30,4,0,7,0.01
2013-12-4,80.6,62.9,51.3,66.2,49.5,36.6,99,68,26,29.59,29.37,10,2,14,0.00
2013-12-5,51.3,39.6,34.5,37.0,29.6,21.1,91,69,45,29.94,29.59,13,2,19,0.52
2013-12-6,36.1,32.1,27.1,34.0,27.8,19.0,94,84,69,30.26,29.85,8,0,13,0.90
2013-12-7,42.3,31.2,26.4,21.9,17.2,12.9,79,57,33,30.32,30.06,9,0,18,0.00
2013-12-8,36.5,32.3,27.9,32.0,24.1,14.3,86,72,53,30.07,29.83,8,0,11,0.00
2013-12-9,37.0,34.9,31.3,32.3,25.6,20.5,89,69,56,30.12,29.93,9,0,12,0.01
2013-12-10,52.0,33.7,21.7,23.7,12.4,-5.2,75,48,10,30.28,30.11,11,2,16,0.00
2013-12-11,53.2,34.5,21.4,29.9,18.6,8.7,83,56,17,30.36,30.14,7,0,11,0.00
2013-12-12,54.3,37.9,21.0,28.9,7.4,-8.3,78,37,10,30.41,30.14,6,0,9,0.00
2013-12-13,39.7,37.3,32.7,39.0,27.6,16.3,97,70,42,30.14,29.62,5,0,8,0.50
2013-12-14,46.4,40.0,32.0,44.4,32.3,21.7,100,76,50,30.06,29.60,12,2,19,0.01
2013-12-15,59.4,39.7,27.7,27.3,18.5,0.2,79,52,10,30.11,29.98,8,1,9,0.00
2013-12-16,69.6,43.7,25.7,33.0,20.3,3.9,85,51,10,30.04,29.91,6,0,8,0.00
2013-12-17,76.5,47.2,28.0,40.3,24.3,9.7,88,51,10,30.07,29.97,5,0,8,0.00
2013-12-18,73.4,50.3,30.9,37.8,24.2,9.2,87,46,10,30.06,29.81,8,1,16,0.00
2013-12-19,69.4,58.7,43.9,56.0,44.4,30.0,85,60,39,29.82,29.55,9,2,16,0.00
2013-12-20,73.4,64.6,52.9,62.8,55.8,45.5,85,73,60,29.64,29.44,11,2,14,0.01
2013-12-21,57.7,49.3,41.9,57.5,48.3,38.8,100,96,78,29.55,29.26,17,3,24,1.50
2013-12-22,43.9,37.6,32.5,43.6,26.0,15.6,100,65,44,30.14,29.54,12,5,20,0.00
2013-12-23,52.2,36.5,23.9,27.6,14.4,-4.2,77,45,10,30.33,30.14,6,1,8,0.00
2013-12-24,50.7,35.5,22.8,25.6,18.0,9.2,79,52,20,30.35,30.08,11,1,18,0.00
2013-12-25,54.0,38.3,28.6,28.8,23.5,14.0,80,58,21,30.17,30.08,8,0,10,0.00
2013-12-26,63.0,40.0,24.6,35.8,20.1,2.5,86,55,10,30.23,30.09,3,0,6,0.00
2013-12-27,68.9,41.5,26.2,36.1,19.2,2.1,85,51,10,30.24,30.11,4,0,7,0.00
2013-12-28,64.0,45.7,33.8,33.4,23.1,6.6,77,48,11,30.12,29.77,7,0,10,0.00
2013-12-29,62.4,44.0,34.3,32.5,23.1,13.0,73,47,15,30.00,29.74,11,2,17,0.00
2013-12-30,45.9,33.4,25.0,24.8,18.1,11.4,76,55,26,30.19,29.99,7,1,10,0.00
2013-12-31,57.6,38.0,20.3,27.3,12.5,-2.2,79,45,10,30.25,30.01,10,1,14,0.00
2014-1-1,65.8,45.6,28.4,39.0,24.6,16.0,77,48,16,30.02,29.65,14,2,24,0.01
2014-1-2,46.4,34.8,24.3,19.4,2.4,-12.2,48,29,10,30.25,29.81,15,5,23,0.01